Location: Chicago
(41.8500°N, 87.6500°W)
Time: 03:13:46
(UTC-05:00)

ISS - Visible Passes

Search period start: 30 July 2015 00:00
Search period end: 09 August 2015 00:00
Orbit: 401 x 403 km, 51.6° (Epoch: 30 July)

Date Brightness Start Highest point End Pass type
(mag) Time Alt. Az. Time Alt. Az. Time Alt. Az.
30 Jul -0.2 01:27:13 15° N 01:27:23 15° N 01:29:20 10° NE visible
30 Jul -0.7 03:02:03 10° NW 03:04:41 22° NNE 03:07:21 10° ENE visible
30 Jul -3.5 04:38:09 10° WNW 04:41:25 76° SW 04:44:40 10° SE visible
30 Jul -2.4 21:17:56 10° SSW 21:20:42 26° SE 21:23:30 10° ENE visible
30 Jul -1.9 22:53:57 10° W 22:56:37 37° NW 22:56:37 37° NW visible
31 Jul0.300:36:57NE00:36:57NE00:29:33WNWvisible
31 Jul -0.4 02:09:39 12° NNW 02:11:29 18° NNE 02:13:49 10° ENE visible
31 Jul -2.7 03:45:13 10° NW 03:48:27 57° NNE 03:51:40 10° ESE visible
31 Jul -3.1 22:00:46 10° WSW 22:04:00 69° NNW 22:07:16 10° NE visible
31 Jul -0.5 23:38:30 10° WNW 23:40:55 19° NNW 23:41:47 17° N visible
01 Aug0.601:22:07ENE01:22:07ENE01:14:29NWvisible
01 Aug -1.7 02:55:04 33° N 02:55:24 34° NNE 02:58:26 10° E visible
01 Aug -2.6 04:28:52 10° WNW 04:31:49 31° SW 04:34:45 10° SSE visible
01 Aug -3.4 21:07:52 10° SW 21:11:04 62° SE 21:14:18 10° ENE visible
01 Aug -0.9 22:45:00 10° WNW 22:47:44 24° NNW 22:50:28 10° NE visible
02 Aug 0.0 00:23:03 10° NW 00:24:07 13° NNW 00:24:07 13° NNW visible
02 Aug -1.6 21:51:35 10° W 21:54:36 35° NNW 21:57:39 10° NE visible
02 Aug -0.2 23:29:42 10° NW 23:31:45 15° N 23:33:08 13° NNE visible
03 Aug -2.7 20:58:20 10° WSW 21:01:34 58° NNW 21:04:47 10° NE visible
03 Aug -0.4 22:36:12 10° WNW 22:38:31 18° NNW 22:40:49 10° NNE visible
04 Aug 0.0 00:13:46 10° NNW 00:14:34 13° NNW 00:14:34 13° NNW visible
04 Aug -0.8 21:42:40 10° WNW 21:45:19 22° NNW 21:47:58 10° NE visible
04 Aug -0.3 23:20:41 10° NW 23:22:38 15° N 23:23:22 14° NNE visible
05 Aug -1.3 20:49:14 10° W 20:52:11 31° NNW 20:55:09 10° NE visible
05 Aug -0.3 22:27:22 10° NW 22:29:22 15° N 22:31:22 10° NNE visible
06 Aug 0.1 00:04:13 10° NW 00:04:44 13° NNW 00:04:44 13° NNW visible
06 Aug -0.4 21:33:54 10° NW 21:36:08 17° N 21:38:21 10° NNE visible
06 Aug -0.5 23:11:20 10° NNW 23:13:30 16° N 23:13:30 16° N visible
07 Aug -0.7 20:40:22 10° WNW 20:42:56 21° NNW 20:45:29 10° NE visible
07 Aug -0.4 22:18:17 10° NNW 22:20:15 15° N 22:22:13 10° NE visible
07 Aug 0.1 23:54:33 10° NW 23:54:51 12° NW 23:54:51 12° NW visible
08 Aug -0.5 21:25:02 10° NW 21:27:00 15° N 21:28:57 10° NE visible
08 Aug -0.7 23:01:44 10° NW 23:03:38 20° N 23:03:38 20° N visible
